User: anonymous   Login
Location: Unspecified
(0.0000°N, 0.0000°E)
Time: 07:26:54
(UTC+00:00)
Language:

FORTE - Orbit

View from above orbital plane
View from above orbital plane
View from above satellite
View from above satellite

Ground track
Ground track

The orbit data is extracted from the following two-line orbital elements,

1 24920U 97047A   18115.79042315 -.00000007  00000-0  21259-4 0  9992
2 24920  69.9542 239.5574 0022453 359.0736   1.0339 14.26288083 74681
Epoch (UTC): 25 April 2018 18:58:12
Eccentricity: 0.0022453
inclination: 69.9542°
perigee height: 788 km
apogee height: 820 km
right ascension of ascending node: 239.5574°
argument of perigee: 359.0736°
revolutions per day: 14.26288083
mean anomaly at epoch: 1.0339°
orbit number at epoch: 7468

The dashed part of the orbit path shows where the satellite is in the earth's shadow,  

DLR